Total_Precipitation_Accumulation
0.00 0.00 0.01 0.01 0.01 0.02 0.04 0.10 0.21 0.20 0.18 0.24 0.33 0.55 0.75 0.83 0.99 1.29 1.49 1.50 1.46 1.75 2.24 2.61 2.88 3.08 3.42 3.64 3.81 3.81 4.04 4.45 4.77 4.62 4.29 4.10 3.84 3.61 3.38 3.11 2.99 3.01 2.99 3.16
0.00 0.01 0.01 0.01 0.01 0.02 0.04 0.08 0.18 0.20 0.19 0.30 0.44 0.67 0.84 1.05 1.27 1.36 1.28 1.28 1.43 1.81 2.31 2.67 2.95 3.12 3.40 3.67 4.10 4.23 4.43 4.79 4.92 4.76 4.62 4.47 4.32 3.92 3.77 3.60 3.40 3.04 2.85 2.94
0.01 0.01 0.01 0.01 0.02 0.03 0.05 0.10 0.16 0.17 0.25 0.41 0.53 0.95 1.13 1.28 1.40 1.39 1.32 1.52 1.54 1.62 2.04 2.32 2.44 2.63 2.82 2.97 3.23 3.53 4.02 4.54 4.72 4.77 4.68 4.63 4.65 4.17 3.88 3.72 3.51 3.12 2.84 2.74
0.01 0.01 0.01 0.02 0.03 0.03 0.07 0.08 0.09 0.13 0.25 0.53 0.61 1.22 1.42 1.61 1.72 1.59 1.52 1.46 1.45 1.68 2.00 2.01 1.84 1.99 2.26 2.26 2.58 3.00 3.46 3.82 4.04 4.12 4.12 4.15 4.12 4.00 3.90 3.75 3.35 3.08 2.82 2.72
0.02 0.02 0.02 0.04 0.03 0.03 0.06 0.07 0.10 0.15 0.27 0.51 0.55 0.92 1.44 1.81 1.99 1.61 1.51 1.38 1.44 1.67 1.70 1.66 1.67 1.78 1.95 2.11 2.43 2.74 3.07 3.36 3.53 3.62 3.69 3.79 3.69 3.69 3.58 3.39 3.16 2.92 2.74 2.59
0.02 0.04 0.04 0.04 0.04 0.05 0.05 0.10 0.18 0.27 0.48 0.86 0.71 0.83 1.38 1.75 1.61 1.40 1.33 1.12 1.23 1.42 1.50 1.55 1.64 1.76 1.89 2.19 2.55 2.84 3.08 3.30 3.37 3.15 3.05 3.06 3.11 3.18 3.12 2.95 2.76 2.52 2.42 2.30
0.13 0.11 0.08 0.06 0.07 0.07 0.09 0.20 0.65 1.08 1.41 1.31 0.81 0.92 1.51 1.39 1.06 0.98 1.07 1.05 1.04 1.08 1.23 1.34 1.53 1.73 1.91 2.02 2.12 2.56 2.99 3.16 3.07 2.82 2.63 2.55 2.68 2.79 2.71 2.59 2.51 2.39 2.21 2.09
0.28 0.26 0.14 0.10 0.13 0.14 0.14 0.26 0.75 1.05 1.15 1.13 0.91 1.31 1.80 1.39 0.95 0.80 0.91 0.90 0.79 0.74 0.72 0.80 0.98 1.10 1.25 1.30 1.33 1.50 1.78 2.02 2.11 2.01 2.02 2.07 2.12 2.19 2.19 2.37 2.21 2.18 2.07 1.94
0.17 0.16 0.12 0.13 0.18 0.18 0.25 0.29 0.32 0.55 0.76 1.16 1.17 1.37 1.46 1.20 0.94 0.90 0.98 0.89 0.70 0.66 0.62 0.68 0.78 0.84 0.94 0.97 1.01 1.16 1.41 1.65 1.69 1.70 1.75 1.80 1.82 1.85 1.88 1.94 1.89 1.84 1.88 1.81
0.11 0.11 0.12 0.12 0.16 0.19 0.21 0.29 0.45 0.72 0.97 1.13 1.22 1.58 1.74 1.56 1.28 1.12 1.07 0.94 0.72 0.60 0.57 0.64 0.74 0.79 0.89 1.01 1.16 1.28 1.39 1.50 1.50 1.50 1.52 1.47 1.57 1.58 1.62 1.62 1.55 1.57 1.65 1.65
0.08 0.10 0.14 0.20 0.22 0.23 0.24 0.32 0.48 0.67 0.73 0.96 1.34 1.50 1.26 1.23 1.21 1.28 1.22 1.02 0.78 0.60 0.54 0.59 0.71 0.78 0.85 0.98 1.12 1.27 1.36 1.45 1.43 1.38 1.46 1.51 1.52 1.55 1.53 1.49 1.41 1.48 1.55 1.58
0.10 0.12 0.18 0.26 0.23 0.17 0.23 0.33 0.49 0.75 0.80 0.84 1.01 1.17 0.79 0.82 0.94 1.03 1.03 0.83 0.65 0.57 0.55 0.62 0.74 0.79 0.93 1.00 1.07 1.10 1.19 1.33 1.34 1.36 1.48 1.68 1.64 1.64 1.60 1.46 1.40 1.45 1.46 1.50
0.16 0.16 0.29 0.56 0.52 0.28 0.27 0.26 0.36 0.52 0.64 0.73 0.97 1.15 0.75 0.77 0.93 0.94 0.92 0.81 0.72 0.68 0.67 0.74 0.78 0.78 0.89 0.99 1.03 1.05 1.12 1.24 1.41 1.45 1.52 1.65 1.66 1.62 1.52 1.43 1.39 1.40 1.42 1.46
0.14 0.16 0.27 0.65 0.69 0.46 0.33 0.29 0.32 0.45 0.58 0.56 0.59 0.83 0.83 0.82 0.95 0.95 0.96 0.92 0.90 0.78 0.77 0.87 0.94 0.87 0.87 0.90 0.91 0.94 1.07 1.21 1.24 1.25 1.31 1.41 1.37 1.37 1.38 1.39 1.37 1.35 1.41 1.46
0.14 0.18 0.19 0.29 0.40 0.43 0.39 0.32 0.28 0.31 0.35 0.47 0.56 0.75 0.92 0.93 0.96 0.85 0.82 0.84 0.85 0.80 0.76 0.82 0.76 0.71 0.70 0.71 0.74 0.79 0.83 0.95 1.09 1.18 1.23 1.32 1.38 1.38 1.39 1.34 1.28 1.35 1.42 1.39
0.21 0.26 0.24 0.32 0.40 0.45 0.42 0.37 0.31 0.29 0.28 0.35 0.48 0.68 0.75 0.81 0.86 0.88 0.86 0.87 0.81 0.72 0.73 0.67 0.55 0.50 0.53 0.59 0.63 0.69 0.71 0.79 0.92 0.96 1.05 1.28 1.42 1.44 1.39 1.30 1.32 1.38 1.44 1.51
0.32 0.37 0.36 0.40 0.49 0.61 0.62 0.39 0.35 0.36 0.33 0.45 0.71 0.82 0.83 0.96 0.96 0.89 0.83 0.79 0.71 0.63 0.61 0.58 0.50 0.49 0.53 0.58 0.64 0.69 0.77 0.80 0.87 0.92 1.01 1.09 1.23 1.30 1.25 1.19 1.24 1.28 1.37 1.50
0.39 0.55 0.57 0.54 0.71 0.90 0.73 0.42 0.37 0.41 0.39 0.41 0.56 0.67 0.74 0.96 1.01 0.81 0.69 0.67 0.65 0.62 0.56 0.56 0.56 0.57 0.68 0.67 0.71 0.84 0.97 0.98 0.99 1.09 1.15 1.14 1.23 1.34 1.34 1.31 1.34 1.43 1.49 1.53
0.33 0.53 0.61 0.67 0.83 0.86 0.72 0.58 0.51 0.57 0.65 0.47 0.52 0.59 0.66 0.68 0.80 0.86 0.67 0.69 0.69 0.60 0.59 0.59 0.62 0.69 0.82 0.81 0.84 0.99 1.04 1.08 1.11 1.17 1.26 1.31 1.37 1.47 1.51 1.51 1.59 1.67 1.74 1.64
0.42 0.55 0.71 0.70 0.88 1.03 0.85 0.67 0.60 0.69 1.14 0.76 0.58 0.53 0.63 0.68 1.01 1.08 0.80 0.68 0.68 0.66 0.72 0.77 0.76 0.82 0.89 0.96 1.10 1.21 1.24 1.30 1.36 1.32 1.34 1.43 1.56 1.65 1.71 1.87 2.09 2.15 2.15 2.03
0.85 0.88 0.88 0.86 0.94 0.96 0.81 0.66 0.67 1.16 1.42 0.89 0.71 0.61 0.66 0.73 0.87 0.92 0.77 0.69 0.69 0.75 0.87 0.98 1.10 1.16 1.19 1.11 1.21 1.37 1.54 1.62 1.61 1.70 1.71 1.71 1.83 1.94 2.01 2.23 2.41 2.45 2.42 2.50
1.13 1.14 1.10 1.12 1.31 1.34 0.95 0.91 1.12 1.34 1.17 0.98 0.91 0.85 0.74 0.72 0.75 0.85 0.84 0.81 0.81 0.83 0.98 1.07 1.20 1.28 1.33 1.43 1.52 1.55 1.63 1.70 1.78 1.82 1.88 1.95 2.11 2.05 2.13 2.40 2.47 2.57 2.71 2.73
1.14 1.19 1.22 1.29 1.40 1.28 1.12 1.25 1.30 1.18 1.22 1.15 1.00 0.98 0.87 0.81 0.75 0.73 0.77 0.82 0.88 0.88 0.94 1.10 1.15 1.23 1.38 1.50 1.60 1.77 1.82 1.82 1.90 1.98 2.05 2.19 2.35 2.48 2.54 2.71 2.82 2.80 2.78 2.75
1.27 1.11 1.28 1.46 1.54 1.44 1.48 1.44 1.36 1.32 1.28 1.14 0.96 0.97 0.94 0.84 0.75 0.75 0.82 0.86 0.85 0.87 0.91 1.02 1.09 1.23 1.36 1.48 1.66 1.86 1.89 1.82 1.93 2.07 2.12 2.26 2.40 2.48 2.56 2.72 2.77 2.79 2.76 2.76
1.48 1.42 1.67 1.88 1.87 1.88 1.88 1.71 1.46 1.33 1.20 1.10 0.99 0.96 0.92 0.90 0.88 0.82 0.85 0.94 0.85 0.80 0.88 1.01 1.05 1.15 1.27 1.31 1.49 1.70 1.85 1.92 2.07 2.18 2.25 2.37 2.53 2.67 2.77 2.69 2.72 2.77 2.77 2.68
1.58 1.71 1.93 2.13 1.96 1.92 1.98 1.73 1.44 1.39 1.41 1.33 1.30 1.25 1.16 1.08 1.05 0.96 0.87 0.89 0.85 0.82 0.91 1.07 1.12 1.15 1.21 1.24 1.38 1.50 1.73 1.91 2.20 2.25 2.29 2.39 2.49 2.65 2.68 2.66 2.58 2.51 2.40 2.36